Torna al catalogo

COSMOS 2456

GLONASS

AttivoNavigazioneMEO
NORAD 36111·PAYLOAD·🇷🇺 Russia

Lanciato Dec 14, 2009 da Baikonur Cosmodrome

Loading…

Prossimi Passaggi (prossime 24 ore)

TLE

AggiornatoSource: CelesTrak SupGP

Epoca: Sep 12, 2026, 23:59 UTC

1 36111C 09070A   26255.99979167  .00000000  00000+0  00000+0 0  2558
2 36111  65.0678  67.9789 0001443 347.6548 315.8235  2.13103838    18

Traccia COSMOS 2456 in tempo reale con AllMySat

Download on the App Store